This is the latest recevied weather packets stored in our database for station/object N5RPG. If no packets are shown the sender has not sent any weather packets the latest 10 day(s).
| Time | Temp. | Humidity | Pressure | Rain* | Wind** | Luminosity | Snow |
|---|---|---|---|---|---|---|---|
| 1777840080 | 28.33° C | 37% | 1019.7 hPa | 0 mm | - | 848 W/m² | - |
| 1777839778 | 27.78° C | 36% | 1019.7 hPa | 0 mm | - | 854 W/m² | - |
| 1777839475 | 27.22° C | 36% | 1019.6 hPa | 0 mm | - | 829 W/m² | - |
| 1777839173 | 27.78° C | 35% | 1019.8 hPa | 0 mm | - | 855 W/m² | - |
| 1777838870 | 27.78° C | 34% | 1020.1 hPa | 0 mm | - | 870 W/m² | - |
| 1777838566 | 27.78° C | 38% | 1020.1 hPa | 0 mm | - | 870 W/m² | - |
| 1777838263 | 27.22° C | 36% | 1020 hPa | 0 mm | - | 890 W/m² | - |
| 1777837960 | 27.22° C | 36% | 1020.1 hPa | 0 mm | - | 897 W/m² | - |
| 1777837658 | 27.22° C | 37% | 1020.4 hPa | 0 mm | - | 899 W/m² | - |
| 1777837353 | 27.22° C | 35% | 1020.4 hPa | 0 mm | - | 908 W/m² | - |
| 1777837049 | 28.33° C | 37% | 1020.4 hPa | 0 mm | - | 918 W/m² | - |
| 1777836745 | 27.78° C | 39% | 1020.7 hPa | 0 mm | - | 923 W/m² | - |
| 1777836441 | 27.78° C | 38% | 1020.5 hPa | 0 mm | - | 922 W/m² | - |
| 1777836136 | 27.78° C | 37% | 1020.7 hPa | 0 mm | - | 976 W/m² | - |
| 1777835834 | 26.67° C | 40% | 1020.9 hPa | 0 mm | - | 942 W/m² | - |
| 1777835531 | 27.22° C | 37% | 1021 hPa | 0 mm | - | 946 W/m² | - |
| 1777835228 | 26.67° C | 39% | 1021.1 hPa | 0 mm | - | 954 W/m² | - |
| 1777834924 | 26.67° C | 38% | 1021.1 hPa | 0 mm | - | 927 W/m² | - |
| 1777834621 | 26.11° C | 37% | 1021.2 hPa | 0 mm | - | 967 W/m² | - |
| 1777834316 | 26.67° C | 37% | 1021.2 hPa | 0 mm | - | 993 W/m² | - |
| 1777834011 | 27.22° C | 37% | 1021.3 hPa | 0 mm | - | 977 W/m² | - |
| 1777833708 | 26.67° C | 39% | 1021.3 hPa | 0 mm | - | 987 W/m² | - |
| 1777833404 | 26.67° C | 38% | 1021.6 hPa | 0 mm | - | 989 W/m² | - |
| 1777833102 | 26.11° C | 37% | 1021.6 hPa | 0 mm | - | 980 W/m² | - |
| 1777832800 | 26.11° C | 39% | 1021.6 hPa | 0 mm | - | 984 W/m² | - |
* Rain latest hour (hover to see other rain measurements)
** Current wind speed in m/s (hover to see current wind gust speed)